DLH204 EDDF-EFRO

Flight info

Callsign DLH204
Flight time N/A
Altitude 37000
Route MARUN3W MARUN Y150 TOLGI DCT GIMRU DCT KOPEX DCT KULUD DCT VERAG DCT ODHAF DCT MISMO DCT NEMGU
Aircraft A20N/M-SDE2E3FGHIRWXY/LB1

Departure

Time 2026-05-07 04:57
Airport Frankfurt Main Airport (EDDF)

Arrival

Time N/A
Airport Rovaniemi Airport (EFRO)
Time Latitude Longitude Altitude Speed Heading
2026-05-07 04:16 50.04784 8.56772 361 ft 0 kts 118°
2026-05-07 04:41 50.04786 8.56766 361 ft 0 kts 118°
2026-05-07 04:41 50.04790 8.56756 365 ft 1 kts 118°
2026-05-07 04:42 50.04794 8.56743 364 ft 2 kts 118°
2026-05-07 04:42 50.04801 8.56723 365 ft 2 kts 118°
2026-05-07 04:42 50.04808 8.56704 363 ft 2 kts 118°
2026-05-07 04:42 50.04813 8.56691 363 ft 0 kts 118°
2026-05-07 04:44 50.04811 8.56692 364 ft 0 kts 126°
2026-05-07 04:44 50.04803 8.56695 363 ft 2 kts 165°
2026-05-07 04:45 50.04779 8.56677 363 ft 6 kts 207°
2026-05-07 04:45 50.04744 8.56633 361 ft 7 kts 229°
2026-05-07 04:45 50.04704 8.56555 361 ft 5 kts 232°
2026-05-07 04:45 50.04680 8.56490 364 ft 9 kts 246°
2026-05-07 04:46 50.04656 8.56391 367 ft 10 kts 250°
2026-05-07 04:46 50.04629 8.56277 365 ft 13 kts 249°
2026-05-07 04:46 50.04613 8.56213 366 ft 2 kts 250°
2026-05-07 04:46 50.04605 8.56175 362 ft 6 kts 250°
2026-05-07 04:47 50.04587 8.56099 361 ft 9 kts 250°
2026-05-07 04:47 50.04559 8.55999 362 ft 11 kts 238°
2026-05-07 04:47 50.04479 8.55931 359 ft 15 kts 196°
2026-05-07 04:47 50.04367 8.55917 357 ft 15 kts 166°
2026-05-07 04:48 50.04268 8.55958 354 ft 14 kts 199°
2026-05-07 04:48 50.04185 8.55923 351 ft 14 kts 174°
2026-05-07 04:48 50.04096 8.55981 361 ft 12 kts 131°
2026-05-07 04:48 50.04088 8.56103 358 ft 12 kts 76°
2026-05-07 04:49 50.04119 8.56236 358 ft 14 kts 68°
2026-05-07 04:49 50.04156 8.56396 360 ft 17 kts 70°
2026-05-07 04:49 50.04196 8.56565 360 ft 16 kts 70°
2026-05-07 04:49 50.04236 8.56734 363 ft 16 kts 70°
2026-05-07 04:50 50.04275 8.56894 368 ft 16 kts 69°
2026-05-07 04:50 50.04316 8.57066 367 ft 19 kts 70°
2026-05-07 04:50 50.04367 8.57278 366 ft 21 kts 70°
2026-05-07 04:50 50.04415 8.57483 368 ft 21 kts 69°
2026-05-07 04:51 50.04468 8.57702 369 ft 22 kts 69°
2026-05-07 04:51 50.04525 8.57939 371 ft 24 kts 67°
2026-05-07 04:51 50.04580 8.58185 371 ft 25 kts 71°
2026-05-07 04:51 50.04644 8.58436 372 ft 25 kts 69°
2026-05-07 04:52 50.04693 8.58636 371 ft 6 kts 70°
2026-05-07 04:52 50.04693 8.58714 369 ft 9 kts 109°
2026-05-07 04:52 50.04689 8.58727 369 ft 0 kts 118°
2026-05-07 04:54 50.04687 8.58733 373 ft 3 kts 119°
2026-05-07 04:54 50.04663 8.58752 369 ft 5 kts 175°
2026-05-07 04:55 50.04619 8.58749 369 ft 8 kts 198°
2026-05-07 04:55 50.04564 8.58693 371 ft 11 kts 220°
2026-05-07 04:55 50.04513 8.58622 372 ft 9 kts 223°
2026-05-07 04:55 50.04476 8.58536 372 ft 11 kts 247°
2026-05-07 04:56 50.04442 8.58397 369 ft 16 kts 250°
2026-05-07 04:56 50.04320 8.57874 368 ft 92 kts 250°
2026-05-07 04:56 50.04025 8.56591 363 ft 157 kts 251°
2026-05-07 04:56 50.03629 8.54845 862 ft 173 kts 250°
2026-05-07 04:57 50.03177 8.53085 1942 ft 174 kts 247°
2026-05-07 04:57 50.02748 8.51343 2941 ft 179 kts 249°
2026-05-07 04:57 50.02116 8.49577 3717 ft 192 kts 229°
2026-05-07 04:57 50.01025 8.48343 4597 ft 204 kts 208°
2026-05-07 04:58 49.99633 8.47762 4922 ft 242 kts 191°
2026-05-07 04:58 49.97912 8.47444 5707 ft 254 kts 190°
2026-05-07 04:58 49.96036 8.47055 5739 ft 293 kts 194°
2026-05-07 04:58 49.93920 8.46153 5362 ft 340 kts 199°
2026-05-07 04:59 49.91639 8.44675 5036 ft 379 kts 213°
2026-05-07 04:59 49.89628 8.42333 5827 ft 374 kts 216°
2026-05-07 04:59 49.87602 8.39891 7186 ft 369 kts 219°
2026-05-07 04:59 49.85602 8.37419 7789 ft 355 kts 223°
2026-05-07 05:00 49.84135 8.34531 7754 ft 334 kts 243°
2026-05-07 05:00 49.83526 8.31198 7853 ft 316 kts 266°
2026-05-07 05:00 49.83867 8.27906 8284 ft 304 kts 290°
2026-05-07 05:00 49.85058 8.25290 9101 ft 298 kts 317°
2026-05-07 05:01 49.86855 8.23807 10339 ft 291 kts 343°
2026-05-07 05:01 49.88834 8.23668 11531 ft 285 kts
2026-05-07 05:01 49.90778 8.24414 12274 ft 295 kts 17°
2026-05-07 05:01 49.92778 8.25566 12536 ft 319 kts 20°
2026-05-07 05:02 49.94888 8.26890 12778 ft 342 kts 21°
2026-05-07 05:02 49.97169 8.28289 13018 ft 362 kts 16°
2026-05-07 05:02 49.99659 8.28991 13627 ft 366 kts 359°
2026-05-07 05:02 50.02181 8.28707 14309 ft 367 kts 350°
2026-05-07 05:03 50.04666 8.28471 14958 ft 374 kts 360°
2026-05-07 05:03 50.07326 8.29111 15637 ft 381 kts 15°
2026-05-07 05:03 50.09841 8.30441 16290 ft 386 kts 17°
2026-05-07 05:03 50.12417 8.31787 16943 ft 390 kts 17°
2026-05-07 05:04 50.14991 8.33123 17623 ft 393 kts 17°
2026-05-07 05:04 50.17603 8.34480 18275 ft 397 kts 17°
2026-05-07 05:04 50.20207 8.35840 18836 ft 400 kts 17°
2026-05-07 05:04 50.22868 8.37235 19347 ft 405 kts 17°
2026-05-07 05:05 50.25531 8.38635 19970 ft 407 kts 17°
2026-05-07 05:05 50.28239 8.40061 20546 ft 410 kts 17°
2026-05-07 05:05 50.30953 8.41499 21122 ft 413 kts 18°
2026-05-07 05:05 50.33668 8.42974 21691 ft 416 kts 18°
2026-05-07 05:06 50.36423 8.44483 22247 ft 419 kts 18°
2026-05-07 05:06 50.39184 8.45996 22807 ft 422 kts 18°
2026-05-07 05:06 50.41965 8.47519 23359 ft 425 kts 18°
2026-05-07 05:06 50.44759 8.49049 23851 ft 427 kts 18°
2026-05-07 05:07 50.47533 8.50568 24358 ft 428 kts 19°
2026-05-07 05:07 50.50372 8.52034 24832 ft 429 kts 17°
2026-05-07 05:07 50.53236 8.53380 25317 ft 431 kts 16°
2026-05-07 05:07 50.56113 8.54708 25792 ft 432 kts 16°
2026-05-07 05:08 50.58997 8.56054 26216 ft 434 kts 17°
2026-05-07 05:08 50.61897 8.57427 26652 ft 436 kts 17°
2026-05-07 05:08 50.64801 8.58814 27085 ft 438 kts 18°
2026-05-07 05:08 50.67734 8.60224 27497 ft 440 kts 18°
2026-05-07 05:09 50.70653 8.61630 27890 ft 441 kts 18°
2026-05-07 05:09 50.73571 8.63038 28273 ft 444 kts 18°
2026-05-07 05:09 50.76518 8.64461 28636 ft 445 kts 18°
2026-05-07 05:09 50.79447 8.66055 28990 ft 446 kts 26°
2026-05-07 05:10 50.82123 8.68535 29309 ft 445 kts 39°
2026-05-07 05:10 50.84379 8.71868 29618 ft 444 kts 52°
2026-05-07 05:10 50.86244 8.75744 29938 ft 445 kts 55°
2026-05-07 05:10 50.88109 8.79660 30218 ft 447 kts 54°
2026-05-07 05:11 50.90007 8.83618 30463 ft 450 kts 54°
2026-05-07 05:11 50.91900 8.87567 30706 ft 453 kts 54°
2026-05-07 05:11 50.93803 8.91542 30957 ft 455 kts 54°
2026-05-07 05:11 50.95718 8.95555 31257 ft 456 kts 54°
2026-05-07 05:12 50.97612 8.99535 31580 ft 457 kts 54°
2026-05-07 05:12 50.99525 9.03564 31904 ft 457 kts 54°
2026-05-07 05:12 51.01429 9.07578 32214 ft 457 kts 54°
2026-05-07 05:12 51.03349 9.11632 32537 ft 457 kts 54°
2026-05-07 05:13 51.05262 9.15678 32850 ft 457 kts 54°
2026-05-07 05:13 51.07175 9.19728 33176 ft 457 kts 54°
2026-05-07 05:13 51.09155 9.23659 33485 ft 458 kts 47°
2026-05-07 05:13 51.11554 9.26932 33784 ft 459 kts 35°
2026-05-07 05:14 51.14383 9.29390 34021 ft 461 kts 22°
2026-05-07 05:14 51.17468 9.30880 34238 ft 462 kts 13°
2026-05-07 05:14 51.20584 9.31841 34442 ft 463 kts 11°
2026-05-07 05:14 51.23742 9.32743 34654 ft 464 kts 11°
2026-05-07 05:15 51.26927 9.33712 34872 ft 464 kts 12°
2026-05-07 05:15 51.30082 9.34739 35070 ft 464 kts 12°
2026-05-07 05:15 51.33243 9.35812 35267 ft 465 kts 12°
2026-05-07 05:15 51.36391 9.36902 35454 ft 465 kts 13°
2026-05-07 05:16 51.39559 9.38007 35647 ft 466 kts 13°
2026-05-07 05:16 51.42718 9.39112 35824 ft 466 kts 13°
2026-05-07 05:16 51.45893 9.40224 36001 ft 467 kts 12°
2026-05-07 05:16 51.49074 9.41338 36185 ft 467 kts 12°
2026-05-07 05:17 51.52205 9.42437 36345 ft 468 kts 12°
2026-05-07 05:17 51.55425 9.43567 36515 ft 468 kts 12°
2026-05-07 05:17 51.58568 9.44673 36674 ft 469 kts 12°
2026-05-07 05:17 51.61760 9.45798 36847 ft 469 kts 12°
2026-05-07 05:18 51.64955 9.46925 37003 ft 469 kts 12°
2026-05-07 05:18 51.68135 9.48049 37166 ft 470 kts 12°
2026-05-07 05:18 51.71329 9.49179 37328 ft 470 kts 12°
2026-05-07 05:18 51.74536 9.50317 37491 ft 470 kts 12°
2026-05-07 05:19 51.77722 9.51447 37637 ft 470 kts 12°
2026-05-07 05:19 51.80916 9.52582 37793 ft 470 kts 12°
2026-05-07 05:19 51.84061 9.53979 37910 ft 471 kts 19°
2026-05-07 05:19 51.87091 9.55857 38058 ft 471 kts 20°
2026-05-07 05:20 51.90198 9.57772 38191 ft 471 kts 20°
2026-05-07 05:20 51.93216 9.59609 38325 ft 471 kts 20°
2026-05-07 05:20 51.96284 9.61474 38461 ft 471 kts 20°
2026-05-07 05:20 51.99345 9.63342 38573 ft 471 kts 20°
2026-05-07 05:21 52.08546 9.68997 38900 ft 471 kts 20°
2026-05-07 05:22 52.14664 9.72776 39004 ft 470 kts 20°
2026-05-07 05:22 52.20768 9.76558 39014 ft 470 kts 20°
2026-05-07 05:23 52.26869 9.80347 39028 ft 470 kts 20°
2026-05-07 05:23 52.32978 9.84152 39029 ft 470 kts 20°
2026-05-07 05:24 52.39092 9.87970 39022 ft 469 kts 20°
2026-05-07 05:24 52.45136 9.91758 39025 ft 470 kts 20°
2026-05-07 05:25 52.51252 9.95600 38997 ft 470 kts 20°
2026-05-07 05:25 52.57344 9.99439 39004 ft 470 kts 20°
2026-05-07 05:26 52.63452 10.03301 39000 ft 470 kts 20°
2026-05-07 05:26 52.69534 10.07159 39003 ft 470 kts 20°
2026-05-07 05:27 52.75612 10.11029 39015 ft 470 kts 20°
2026-05-07 05:27 52.81710 10.14919 39030 ft 470 kts 20°
2026-05-07 05:28 52.87812 10.18822 39028 ft 470 kts 20°
2026-05-07 05:28 52.93917 10.22741 39030 ft 470 kts 20°
2026-05-07 05:29 52.99968 10.26637 39029 ft 470 kts 20°
2026-05-07 05:29 53.06072 10.30579 39030 ft 470 kts 20°
2026-05-07 05:30 53.12150 10.34517 39033 ft 470 kts 20°
2026-05-07 05:30 53.18263 10.38489 39043 ft 470 kts 20°
2026-05-07 05:31 53.24353 10.42458 39047 ft 470 kts 20°
2026-05-07 05:31 53.30414 10.46420 39046 ft 471 kts 20°
2026-05-07 05:32 53.36504 10.50414 39053 ft 470 kts 20°
2026-05-07 05:32 53.42599 10.54423 39054 ft 471 kts 20°
2026-05-07 05:33 53.48691 10.58443 39061 ft 471 kts 20°
2026-05-07 05:33 53.54783 10.62475 39063 ft 471 kts 20°
2026-05-07 05:34 53.60844 10.66499 39076 ft 471 kts 20°
2026-05-07 05:34 53.66932 10.70554 39078 ft 471 kts 20°
2026-05-07 05:35 53.73021 10.74621 39088 ft 471 kts 20°
2026-05-07 05:35 53.79114 10.78704 39090 ft 471 kts 20°
2026-05-07 05:36 53.85173 10.82777 39091 ft 471 kts 20°
2026-05-07 05:36 53.91249 10.86875 39078 ft 471 kts 20°
2026-05-07 05:37 53.97339 10.90995 39072 ft 471 kts 20°
2026-05-07 05:37 54.03423 10.95123 39069 ft 471 kts 20°
2026-05-07 05:38 54.09519 10.99273 39073 ft 471 kts 20°
2026-05-07 05:38 54.15569 11.03404 39080 ft 471 kts 20°
2026-05-07 05:39 54.21646 11.07568 39086 ft 472 kts 20°
2026-05-07 05:39 54.27741 11.11755 39085 ft 472 kts 20°
2026-05-07 05:40 54.33835 11.15955 39090 ft 472 kts 20°
2026-05-07 05:40 54.39918 11.20163 39088 ft 472 kts 20°
2026-05-07 05:41 54.45972 11.24363 39089 ft 472 kts 20°
2026-05-07 05:41 54.52064 11.28599 39093 ft 472 kts 20°
2026-05-07 05:42 54.58257 11.32230 39098 ft 469 kts
2026-05-07 05:42 54.64648 11.34561 39098 ft 469 kts
2026-05-07 05:43 54.71022 11.36953 39100 ft 469 kts
2026-05-07 05:43 54.77370 11.39339 39104 ft 469 kts
2026-05-07 05:44 54.83740 11.41736 39102 ft 469 kts
2026-05-07 05:44 54.90111 11.44141 39107 ft 469 kts
2026-05-07 05:45 54.96484 11.46604 39107 ft 469 kts 13°
2026-05-07 05:45 55.02653 11.50455 39109 ft 472 kts 18°
2026-05-07 05:46 55.08770 11.54407 39113 ft 472 kts 18°
2026-05-07 05:46 55.14901 11.58386 39114 ft 472 kts 18°
2026-05-07 05:47 55.20088 11.61778 39110 ft 472 kts 18°
2026-05-07 05:47 55.26242 11.65819 39116 ft 472 kts 18°
2026-05-07 05:48 55.32349 11.69844 39119 ft 472 kts 18°
2026-05-07 05:48 55.38528 11.73928 39119 ft 472 kts 18°
2026-05-07 05:49 55.44639 11.77981 39114 ft 472 kts 18°
2026-05-07 05:49 55.50786 11.82071 39112 ft 472 kts 18°
2026-05-07 05:50 55.56930 11.86174 39114 ft 472 kts 18°
2026-05-07 05:50 55.63072 11.90288 39113 ft 472 kts 18°
2026-05-07 05:51 55.69198 11.94406 39113 ft 472 kts 18°
2026-05-07 05:51 55.75339 11.98547 39114 ft 472 kts 18°
2026-05-07 05:52 55.81488 12.02708 39113 ft 472 kts 18°
2026-05-07 05:52 55.87638 12.06888 39117 ft 472 kts 18°
2026-05-07 05:53 55.93769 12.11068 39120 ft 472 kts 18°
2026-05-07 05:53 55.99874 12.15241 39119 ft 473 kts 18°
2026-05-07 05:54 56.05998 12.19442 39116 ft 473 kts 18°
2026-05-07 05:54 56.12141 12.23671 39113 ft 473 kts 18°
2026-05-07 05:55 56.18269 12.27903 39112 ft 473 kts 18°
2026-05-07 05:55 56.24428 12.32170 39111 ft 473 kts 18°
2026-05-07 05:56 56.30382 12.36817 39113 ft 475 kts 21°
2026-05-07 05:56 56.36420 12.41671 39114 ft 474 kts 21°
2026-05-07 05:57 56.42465 12.46518 39109 ft 475 kts 21°
2026-05-07 05:57 56.48442 12.51332 39111 ft 475 kts 21°
2026-05-07 05:58 56.54485 12.56218 39110 ft 475 kts 21°
2026-05-07 05:58 56.60527 12.61122 39112 ft 476 kts 21°
2026-05-07 05:59 56.66564 12.66039 39110 ft 476 kts 21°
2026-05-07 05:59 56.72570 12.70947 39106 ft 476 kts 21°
2026-05-07 06:00 56.78616 12.75908 39112 ft 476 kts 21°
2026-05-07 06:00 56.84655 12.80887 39113 ft 477 kts 21°
2026-05-07 06:01 56.90695 12.85885 39115 ft 477 kts 21°
2026-05-07 06:01 56.96749 12.90914 39098 ft 477 kts 21°
2026-05-07 06:02 57.02754 12.95919 39105 ft 477 kts 21°
2026-05-07 06:02 57.08802 13.00979 39107 ft 478 kts 21°
2026-05-07 06:03 57.14846 13.06052 39112 ft 478 kts 21°
2026-05-07 06:03 57.20867 13.11126 39114 ft 478 kts 21°
2026-05-07 06:04 57.26933 13.16255 39117 ft 478 kts 21°